Regional Weather Roundup
Issued by NWS

Home | Current Version | Previous Version | Graphics & Text | Print | Product List | Glossary On
Versions: 1 2 3 4 5 6 7 8 9 10 11 12 13 14 15 16 17 18 19 20 21 22 23 24 25 26 27 28 29 30 31 32 33 34 35 36 37 38 39 40 41 42 43 44 45 46 47 48 49 50
000
ASUS43 KTOP 180559
RWRKS

WEATHER ROUNDUP FOR KANSAS
NATIONAL WEATHER SERVICE GOODLAND KS
1200 AM CST THU JAN 18 2018

NOTE:  "FAIR" INDICATES FEW OR NO CLOUDS BELOW 12,000 FEET WITH NO
SIGNIFICANT WEATHER AND/OR OBSTRUCTIONS TO VISIBILITY.

KSZ001>006-013>018-027>032-041>047-180700-
NORTHWEST KANSAS

CITY           SKY/WX    TMP DP  RH WIND       PRES   REMARKS
GOODLAND       CLEAR     23  13  65 W10       30.20F WCI  12
6HR MIN TEMP:  19; 6HR MAX TEMP:  40;

HAYS           CLOUDY    18   7  62 S5        30.27F
HILL CITY      CLOUDY    20  10  65 W6        30.24F
6HR MIN TEMP:  16; 6HR MAX TEMP:  35;

RUSSELL        CLOUDY    21  11  65 S14       30.26F WCI   8
6HR MIN TEMP:  21; 6HR MAX TEMP:  29;

$$

KSZ061>065-074>080-084>089-180700-
SOUTHWEST KANSAS

CITY           SKY/WX    TMP DP  RH WIND       PRES   REMARKS
DODGE CITY     CLEAR     25   8  48 SW14      30.27F WCI  13
6HR MIN TEMP:  24; 6HR MAX TEMP:  37;

GARDEN CITY    CLOUDY    15   5  64 S5        30.25F
6HR MIN TEMP:  15; 6HR MAX TEMP:  40;

GREAT BEND     CLOUDY    21   8  57 S10       30.29F WCI  10
LIBERAL        CLOUDY    22  10  60 SW9       30.28F
$$

KSZ066>073-081>083-090>101-180700-
SOUTHEAST KANSAS

CITY           SKY/WX    TMP DP  RH WIND       PRES   REMARKS
CHANUTE          N/A    N/A N/A N/A MISG      30.46F
COFFEYVILLE    CLOUDY    13   7  77 S6        30.50F
6HR MIN TEMP:  13; 6HR MAX TEMP:  21;

HUTCHINSON     CLOUDY    21   8  57 S8        30.35F
6HR MIN TEMP:  20; 6HR MAX TEMP:  28;

MEDICINE LODGE   N/A     20   3  48 SE5       30.37F
NEWTON         CLOUDY    21   9  59 S15       30.36F WCI   8
PARSONS        CLOUDY    15   8  73 S3        30.49F
6HR MIN TEMP:  11; 6HR MAX TEMP:  20;

WICHITA INTL   CLOUDY    20   8  60 S12       30.39F WCI   8
6HR MIN TEMP:  19; 6HR MAX TEMP:  27;

WICHITA JABRA  CLOUDY    23   8  52 S15       30.38F WCI  10
6HR MIN TEMP:  18; 6HR MAX TEMP:  25;

WICHITA MCCONL CLOUDY    21   6  50 SW13      30.39F WCI   9
WINFIELD       CLOUDY    18   8  65 S8        30.44F
6HR MIN TEMP:  18; 6HR MAX TEMP:  25;

$$

KSZ007>012-019>026-033>040-048>060-102>105-180700-
NORTHEAST KANSAS

CITY           SKY/WX    TMP DP  RH WIND       PRES   REMARKS
CONCORDIA      CLOUDY    21  10  62 S17       30.28F WCI   7
6HR MIN TEMP:  21; 6HR MAX TEMP:  25;

EMPORIA        CLEAR     17   9  70 S10       30.39F WCI   5
6HR MIN TEMP:  16; 6HR MAX TEMP:  21;

LAWRENCE       CLOUDY    15   8  73 CALM      30.40F
6HR MIN TEMP:  11; 6HR MAX TEMP:  20;

MANHATTAN      CLOUDY    22  10  60 SW10      30.35F WCI  11
6HR MIN TEMP:  15; 6HR MAX TEMP:  25;

OLATHE IND     CLOUDY    12   8  84 S8        30.40F
6HR MIN TEMP:  11; 6HR MAX TEMP:  18;

OLATHE EXE     CLOUDY    13   8  81 SW9       30.40F
6HR MIN TEMP:  13; 6HR MAX TEMP:  18;

SALINA         CLEAR     23  10  57 S14       30.33F WCI  11
6HR MIN TEMP:  20; 6HR MAX TEMP:  26;

TOPEKA BILLARD CLOUDY    19  11  70 SW5       30.38F
6HR MIN TEMP:  18; 6HR MAX TEMP:  24;

TOPEKA FORBES  CLOUDY    19  11  70 S14       30.37F WCI   6
6HR MIN TEMP:  18; 6HR MAX TEMP:  23;

$$




USA.gov is the U.S. government's official web portal to all federal, state and local government web resources and services.